Weather History for Sydney, NW

Change the Weather History Date:

Thursday, January 24, 2013

  Actual Average Record
Temperature  
Mean Temperature 74 °F -  
Max Temperature 79 °F 80 °F 105 °F (2009)
Min Temperature 69 °F 66 °F 62 °F (1999)
Cooling Degree Days 9    
Growing Degree Days 24 (Base 50)    
Moisture  
Dew Point 66 °F    
Average Humidity 77    
Maximum Humidity 88    
Minimum Humidity 59    
Precipitation  
Precipitation 0.01 in 0.15 in - ()
Sea Level Pressure  
Sea Level Pressure 30.00 in    
Wind  
Wind Speed 15 mph ()    
Max Wind Speed 21 mph    
Max Gust Speed -    
Visibility 7.4 miles    
Events      
Averages and records for this station are not official NWS values.
T = Trace of Precipitation, MM = Missing Value Source: Averaged Metar Reports

Daily Weather History Graph

Daily Weather History Graph

Search for Another Location

Airport:

Trip Planner

Search our weather history database for the weather conditions in past years. The results will help you decide how hot, cold, wet, or windy it might be!

Date:

Astronomy

Jan. 24, 2013 Rise Set
Actual Time 6:08 AM AEDT 8:05 PM AEDT
Civil Twilight 5:40 AM AEDT 8:33 PM AEDT
Nautical Twilight 5:07 AM AEDT 9:07 PM AEDT
Astronomical Twilight 4:31 AM AEDT 9:42 PM AEDT
Moon 5:46 PM AEDT (1/24) 3:20 AM AEDT (1/24)
Length of Visible Light 14h 52m
Length of Day
13h 57m
Waxing Gibbous, 91% of the Moon is Illuminated
Jan 24
Waxing Gibbous
Jan 27
Full
Feb 4
Last Quarter
Feb 10
New
Feb 18
First Quarter

Hourly Weather History & Observations

Time (AEDT) Temp. Dew Point Humidity Pressure Visibility Wind Dir Wind Speed Gust Speed Precip Events Conditions
12:00 AM 71 °F 64 °F 72% 30.05 in 14 mi South 19.6 mph - -   Mostly Cloudy
12:00 AM 69.8 °F 64.4 °F 83% 30.04 in 6.2 mi South 19.6 mph - N/A   Mostly Cloudy
12:30 AM 69.8 °F 64.4 °F 83% 30.04 in 6.2 mi South 18.4 mph - N/A   Mostly Cloudy
1:00 AM 71.6 °F 62.6 °F 73% 30.04 in 6.2 mi South 18.4 mph - N/A   Mostly Cloudy
1:30 AM 69.8 °F 62.6 °F 78% 30.04 in 6.2 mi South 17.3 mph - N/A   Mostly Cloudy
2:00 AM 70 °F 64 °F 74% 30.03 in - South 17.3 mph - -  
2:00 AM 69.8 °F 64.4 °F 83% 30.01 in 6.2 mi South 17.3 mph - N/A   Mostly Cloudy
2:30 AM 69.8 °F 62.6 °F 78% 30.01 in 6.2 mi South 20.7 mph - N/A   Mostly Cloudy
3:00 AM 70 °F 62 °F 70% 30.01 in 14 mi South 17.3 mph - -   Partly Cloudy
3:00 AM 69.8 °F 62.6 °F 78% 30.01 in 6.2 mi South 17.3 mph - N/A   Mostly Cloudy
3:30 AM 69.8 °F 62.6 °F 78% 29.98 in 6.2 mi SSW 15.0 mph - N/A   Mostly Cloudy
4:00 AM 69.8 °F 64.4 °F 83% 30.01 in 6.2 mi South 17.3 mph - N/A   Mostly Cloudy
4:30 AM 69.8 °F 64.4 °F 83% 29.98 in 6.2 mi South 18.4 mph - N/A   Mostly Cloudy
5:00 AM 70 °F 64 °F 76% 30.00 in - South 17.3 mph - -  
5:00 AM 69.8 °F 64.4 °F 83% 29.98 in 6.2 mi South 17.3 mph - N/A   Mostly Cloudy
5:30 AM 69.8 °F 64.4 °F 83% 30.01 in 6.2 mi SSW 13.8 mph - N/A   Scattered Clouds
6:00 AM 70 °F 64 °F 75% 30.01 in 12 mi SSW 12.7 mph - -   Partly Cloudy
6:00 AM 69.8 °F 64.4 °F 83% 30.01 in 6.2 mi SSW 12.7 mph - N/A   Mostly Cloudy
6:30 AM 69.8 °F 64.4 °F 83% 30.01 in 6.2 mi SSW 17.3 mph - N/A   Mostly Cloudy
7:00 AM 69.8 °F 64.4 °F 83% 30.04 in 6.2 mi South 16.1 mph - N/A   Mostly Cloudy
7:30 AM 69.8 °F 64.4 °F 83% 30.04 in 6.2 mi South 16.1 mph - N/A   Mostly Cloudy
8:00 AM 70 °F 65 °F 78% 30.05 in - SSW 13.8 mph - -  
8:00 AM 69.8 °F 64.4 °F 83% 30.04 in 6.2 mi SSW 13.8 mph - N/A   Mostly Cloudy
8:30 AM 69.8 °F 64.4 °F 83% 30.04 in 6.2 mi South 15.0 mph - N/A   Mostly Cloudy
9:00 AM 71 °F 65 °F 76% 30.06 in 12 mi South 16.1 mph - -   Partly Cloudy
9:00 AM 71.6 °F 64.4 °F 78% 30.04 in 6.2 mi South 16.1 mph - N/A   Mostly Cloudy
9:30 AM 71.6 °F 64.4 °F 78% 30.04 in 6.2 mi South 15.0 mph - N/A   Mostly Cloudy
10:00 AM 71.6 °F 64.4 °F 78% 30.04 in 6.2 mi South 13.8 mph - N/A   Mostly Cloudy
10:30 AM 73.4 °F 64.4 °F 73% 30.04 in 6.2 mi South 15.0 mph - N/A   Partly Cloudy
11:00 AM 73 °F 65 °F 70% 30.06 in - South 13.8 mph - -  
11:00 AM 73.4 °F 66.2 °F 78% 30.04 in 6.2 mi South 13.8 mph - N/A   Partly Cloudy
11:30 AM 73.4 °F 64.4 °F 73% 30.04 in 6.2 mi South 16.1 mph - N/A   Partly Cloudy
12:00 PM 74 °F 65 °F 67% 30.04 in 16 mi South 17.3 mph - -   Partly Cloudy
12:00 PM 73.4 °F 64.4 °F 73% 30.04 in 6.2 mi South 17.3 mph - N/A   Partly Cloudy
12:30 PM 75.2 °F 66.2 °F 73% 30.04 in 6.2 mi South 17.3 mph - N/A   Partly Cloudy
1:00 PM 73.4 °F 66.2 °F 78% 30.04 in 6.2 mi South 18.4 mph - N/A   Scattered Clouds
1:30 PM 73.4 °F 66.2 °F 78% 30.01 in 6.2 mi South 17.3 mph - N/A   Mostly Cloudy
2:00 PM 75 °F 67 °F 70% 30.02 in - South 17.3 mph - -  
2:00 PM 75.2 °F 68.0 °F 78% 30.01 in 6.2 mi South 17.3 mph - N/A   Scattered Clouds
2:30 PM 77.0 °F 68.0 °F 74% 30.01 in 6.2 mi South 16.1 mph - N/A   Scattered Clouds
3:00 PM 76 °F 69 °F 72% 29.99 in 16 mi South 15.0 mph - -   Partly Cloudy
3:00 PM 77.0 °F 68.0 °F 74% 29.98 in 6.2 mi South 15.0 mph - N/A   Partly Cloudy
3:30 PM 77.0 °F 66.2 °F 69% 29.98 in 6.2 mi SE 15.0 mph - N/A   Partly Cloudy
4:00 PM 78.8 °F 66.2 °F 65% 29.98 in 6.2 mi ESE 16.1 mph - N/A   Partly Cloudy
4:30 PM 78.8 °F 68.0 °F 69% 29.95 in 6.2 mi SE 17.3 mph - N/A   Partly Cloudy
5:00 PM 79 °F 67 °F 59% 29.96 in - SE 13.8 mph - -  
5:00 PM 78.8 °F 68.0 °F 69% 29.95 in 6.2 mi SE 13.8 mph - N/A   Partly Cloudy
5:30 PM 78.8 °F 68.0 °F 69% 29.92 in 6.2 mi SE 15.0 mph - N/A   Partly Cloudy
6:00 PM 78 °F 68 °F 63% 29.94 in 16 mi SE 12.7 mph - -   Partly Cloudy
6:00 PM 77.0 °F 68.0 °F 74% 29.92 in 6.2 mi SE 12.7 mph - N/A   Partly Cloudy
6:30 PM 78.8 °F 68.0 °F 69% 29.92 in 6.2 mi SE 11.5 mph - N/A   Partly Cloudy
7:00 PM 77.0 °F 69.8 °F 78% 29.95 in 6.2 mi SE 11.5 mph - N/A   Partly Cloudy
7:30 PM 75.2 °F 69.8 °F 83% 29.95 in 6.2 mi SE 9.2 mph - N/A   Partly Cloudy
8:00 PM 75 °F 70 °F 80% 29.98 in - SE 9.2 mph - -  
8:00 PM 75.2 °F 69.8 °F 83% 29.95 in 6.2 mi SE 9.2 mph - N/A   Partly Cloudy
8:30 PM 73.4 °F 69.8 °F 88% 29.95 in 6.2 mi SE 6.9 mph - N/A   Partly Cloudy
9:00 PM 75 °F 71 °F 82% 29.97 in 16 mi SE 5.8 mph - -   Partly Cloudy
9:00 PM 75.2 °F 69.8 °F 83% 29.95 in 6.2 mi SE 5.8 mph - N/A   Partly Cloudy
9:30 PM 75.2 °F 69.8 °F 83% 29.95 in 6.2 mi ESE 4.6 mph - N/A   Partly Cloudy
10:00 PM 75.2 °F 69.8 °F 83% 29.95 in 6.2 mi NE 6.9 mph - N/A   Partly Cloudy
10:30 PM 77.0 °F 68.0 °F 74% 29.95 in - NE 6.9 mph - N/A   Clear
11:00 PM 76 °F 68 °F 70% 29.98 in - NE 5.8 mph - -  
11:00 PM 75.2 °F 68.0 °F 78% 29.98 in - NE 5.8 mph - N/A   Clear
11:30 PM 75.2 °F 68.0 °F 78% 29.95 in 6.2 mi NE 4.6 mph - N/A   Partly Cloudy